TimeEDT,TemperatureF,Dew PointF,Humidity,Sea Level PressureIn,VisibilityMPH,Wind Direction,Wind SpeedMPH,Gust SpeedMPH,PrecipitationIn,Events,Conditions,WindDirDegrees,DateUTC
12:51 AM,35.1,32.0,89,29.94,6.0,NNW,11.5,-,0.02,Snow,Light Snow,330,2011-10-30 04:51:00
1:28 AM,35.6,30.2,81,29.95,10.0,NW,11.5,-,0.00,,Overcast,310,2011-10-30 05:28:00
1:51 AM,36.0,30.9,82,29.95,10.0,NW,10.4,-,0.00,,Overcast,320,2011-10-30 05:51:00
2:51 AM,36.0,30.0,79,29.95,10.0,NW,8.1,-,N/A,,Mostly Cloudy,310,2011-10-30 06:51:00
3:51 AM,35.6,28.4,75,29.96,10.0,NW,10.4,-,N/A,,Scattered Clouds,310,2011-10-30 07:51:00
4:51 AM,35.1,28.0,76,29.98,10.0,WNW,8.1,-,N/A,,Scattered Clouds,290,2011-10-30 08:51:00
5:51 AM,35.1,28.0,76,30.01,10.0,WNW,11.5,-,N/A,,Clear,300,2011-10-30 09:51:00
6:51 AM,35.1,28.0,76,30.04,10.0,WNW,12.7,23.0,N/A,,Clear,300,2011-10-30 10:51:00
7:51 AM,35.6,28.4,75,30.08,10.0,WNW,10.4,-,N/A,,Partly Cloudy,290,2011-10-30 11:51:00
8:51 AM,37.9,27.0,65,30.12,10.0,NW,10.4,20.7,N/A,,Partly Cloudy,310,2011-10-30 12:51:00
9:51 AM,39.0,27.0,62,30.15,10.0,NW,10.4,-,N/A,,Clear,310,2011-10-30 13:51:00
10:51 AM,41.0,27.0,57,30.18,10.0,NW,13.8,-,N/A,,Clear,310,2011-10-30 14:51:00
11:51 AM,42.1,26.1,53,30.20,10.0,NW,17.3,24.2,N/A,,Clear,320,2011-10-30 15:51:00
12:51 PM,44.1,26.1,49,30.21,10.0,NW,12.7,-,N/A,,Clear,310,2011-10-30 16:51:00
1:51 PM,45.0,26.1,48,30.20,10.0,NW,12.7,-,N/A,,Clear,310,2011-10-30 17:51:00
2:51 PM,46.9,25.0,42,30.21,10.0,NW,11.5,-,N/A,,Clear,320,2011-10-30 18:51:00
3:51 PM,48.0,26.1,42,30.23,10.0,WNW,10.4,-,N/A,,Partly Cloudy,300,2011-10-30 19:51:00
4:51 PM,48.0,26.1,42,30.24,10.0,NW,9.2,20.7,N/A,,Partly Cloudy,310,2011-10-30 20:51:00
5:51 PM,46.9,28.0,48,30.26,10.0,West,6.9,-,N/A,,Partly Cloudy,280,2011-10-30 21:51:00
6:51 PM,46.0,28.9,51,30.29,10.0,Variable,5.8,-,N/A,,Partly Cloudy,0,2011-10-30 22:51:00
7:51 PM,45.0,28.9,53,30.30,10.0,Variable,5.8,-,N/A,,Partly Cloudy,0,2011-10-30 23:51:00
8:51 PM,43.0,30.0,60,30.31,10.0,WNW,8.1,-,N/A,,Scattered Clouds,290,2011-10-31 00:51:00
9:51 PM,43.0,30.0,60,30.32,10.0,WNW,5.8,-,N/A,,Mostly Cloudy,290,2011-10-31 01:51:00
10:51 PM,42.1,30.0,62,30.34,10.0,WNW,5.8,-,N/A,,Mostly Cloudy,290,2011-10-31 02:51:00
11:51 PM,41.0,30.0,65,30.35,10.0,Calm,Calm,-,N/A,,Scattered Clouds,0,2011-10-31 03:51:00